| time (UTC) | temp F | wind direction | speed MPH | gust MPH | rain 1hr in | rain 24hr in | rain mn in | humidity % | barometer mb |
| 20260504050001 | 42 | 243 | 0.0 | 2.0 | 0.00 | 0.00 | 0.00 | 66 | 1011.9 |
| 20260504045000 | 42 | 251 | 1.0 | 3.0 | 0.00 | 0.00 | 0.00 | 67 | 1011.9 |
| 20260504044000 | 41 | 248 | 1.0 | 2.0 | 0.00 | 0.00 | 0.00 | 70 | 1011.8 |
| 20260504042001 | 40 | 252 | 0.0 | 0.0 | 0.00 | 0.00 | 0.00 | 73 | 1011.6 |
| 20260504041000 | 39 | 255 | 0.0 | 0.0 | 0.00 | 0.00 | 0.00 | 77 | 1011.6 |
| 20260504040000 | 38 | 264 | 0.0 | 0.0 | 0.00 | 0.00 | 0.00 | 79 | 1011.5 |
| 20260504035000 | 38 | 264 | 0.0 | 0.0 | 0.00 | 0.00 | 0.00 | 79 | 1011.5 |
| 20260504033959 | 39 | 264 | 0.0 | 0.0 | 0.00 | 0.00 | 0.00 | 76 | 1011.4 |
| 20260504031959 | 39 | 264 | 0.0 | 0.0 | 0.00 | 0.00 | 0.00 | 80 | 1011.4 |
| 20260504031000 | 39 | 264 | 0.0 | 0.0 | 0.00 | 0.00 | 0.00 | 76 | 1011.5 |
| 20260504025001 | 40 | 264 | 0.0 | 0.0 | 0.00 | 0.00 | 0.00 | 72 | 1011.4 |
| 20260504024001 | 41 | 264 | 0.0 | 0.0 | 0.00 | 0.00 | 0.00 | 71 | 1011.5 |
| 20260504023000 | 41 | 264 | 0.0 | 0.0 | 0.00 | 0.00 | 0.00 | 71 | 1011.5 |
| 20260504021001 | 42 | 264 | 0.0 | 0.0 | 0.00 | 0.00 | 0.00 | 72 | 1011.5 |
| 20260504020000 | 42 | 263 | 0.0 | 0.0 | 0.00 | 0.00 | 0.00 | 73 | 1011.4 |
| 20260504015001 | 42 | 224 | 0.0 | 0.0 | 0.00 | 0.00 | 0.00 | 70 | 1011.4 |
| 20260504014000 | 43 | 223 | 0.0 | 0.0 | 0.00 | 0.00 | 0.00 | 67 | 1011.3 |
| 20260504013000 | 44 | 265 | 0.0 | 0.0 | 0.00 | 0.00 | 0.00 | 65 | 1011.2 |
| 20260504012000 | 45 | 281 | 0.0 | 0.0 | 0.00 | 0.00 | 0.00 | 64 | 1011.2 |
| 20260504011000 | 45 | 281 | 0.0 | 0.0 | 0.00 | 0.00 | 0.00 | 62 | 1011.1 |
| 20260504005959 | 47 | 281 | 0.0 | 0.0 | 0.00 | 0.00 | 0.00 | 59 | 1010.9 |
| 20260504004959 | 48 | 281 | 0.0 | 0.0 | 0.00 | 0.00 | 0.00 | 55 | 1010.8 |
| 20260504003959 | 49 | 281 | 0.0 | 0.0 | 0.00 | 0.00 | 0.00 | 52 | 1010.8 |
| 20260504000959 | 54 | 278 | 1.0 | 3.0 | 0.00 | 0.00 | 0.00 | 41 | 1010.3 |
| 20260504000002 | 55 | 283 | 1.0 | 2.0 | 0.00 | 0.00 | 0.00 | 39 | 1010.3 |
| 20260503235001 | 55 | 261 | 2.0 | 5.0 | 0.00 | 0.00 | 0.00 | 38 | 1010.2 |
| 20260503234001 | 56 | 277 | 3.0 | 8.0 | 0.00 | 0.00 | 0.00 | 37 | 1010.2 |
| 20260503233000 | 57 | 348 | 5.0 | 14.0 | 0.00 | 0.00 | 0.00 | 36 | 1010.1 |
| 20260503232001 | 57 | 289 | 6.0 | 13.0 | 0.00 | 0.00 | 0.00 | 34 | 1010.2 |
| 20260503231001 | 57 | 262 | 9.0 | 20.0 | 0.00 | 0.00 | 0.00 | 34 | 1009.9 |
| 20260503225959 | 58 | 317 | 5.0 | 19.0 | 0.00 | 0.00 | 0.00 | 33 | 1009.9 |
| 20260503224000 | 58 | 342 | 8.0 | 16.0 | 0.00 | 0.00 | 0.00 | 32 | 1009.8 |
| 20260503223000 | 58 | 288 | 9.0 | 15.0 | 0.00 | 0.00 | 0.00 | 33 | 1009.8 |
| 20260503222001 | 59 | 285 | 6.0 | 14.0 | 0.00 | 0.00 | 0.00 | 31 | 1009.7 |
| 20260503221001 | 59 | 265 | 4.0 | 11.0 | 0.00 | 0.00 | 0.00 | 31 | 1009.7 |
| 20260503214959 | 58 | 9 | 7.0 | 14.0 | 0.00 | 0.00 | 0.00 | 30 | 1009.8 |
| 20260503213959 | 58 | 286 | 10.0 | 18.0 | 0.00 | 0.00 | 0.00 | 31 | 1009.7 |
| 20260503212959 | 58 | 174 | 7.0 | 20.0 | 0.00 | 0.00 | 0.00 | 29 | 1009.5 |
| 20260503211959 | 58 | 338 | 9.0 | 16.0 | 0.00 | 0.00 | 0.00 | 32 | 1009.5 |
| 20260503210959 | 58 | 312 | 9.0 | 23.0 | 0.00 | 0.00 | 0.00 | 32 | 1009.7 |
| 20260503210002 | 57 | 327 | 8.0 | 18.0 | 0.00 | 0.00 | 0.00 | 31 | 1009.6 |
| 20260503205000 | 56 | 271 | 10.0 | 21.0 | 0.00 | 0.00 | 0.00 | 32 | 1009.8 |
| 20260503204000 | 57 | 286 | 10.0 | 24.0 | 0.00 | 0.00 | 0.00 | 33 | 1009.8 |
| 20260503203001 | 57 | 344 | 10.0 | 21.0 | 0.00 | 0.00 | 0.00 | 31 | 1009.8 |
| 20260503201001 | 56 | 238 | 10.0 | 21.0 | 0.00 | 0.00 | 0.00 | 32 | 1010.0 |
| 20260503195959 | 55 | 327 | 13.0 | 25.0 | 0.00 | 0.00 | 0.00 | 32 | 1010.1 |
| 20260503195000 | 57 | 302 | 9.0 | 21.0 | 0.00 | 0.00 | 0.00 | 34 | 1010.0 |
| 20260503193959 | 55 | 279 | 11.0 | 24.0 | 0.00 | 0.00 | 0.00 | 33 | 1010.1 |
| 20260503193000 | 55 | 300 | 12.0 | 21.0 | 0.00 | 0.00 | 0.00 | 35 | 1010.2 |
| 20260503191959 | 56 | 326 | 10.0 | 26.0 | 0.00 | 0.00 | 0.00 | 32 | 1010.4 |
| 20260503191000 | 55 | 290 | 9.0 | 23.0 | 0.00 | 0.00 | 0.00 | 35 | 1010.4 |
| 20260503190000 | 53 | 317 | 9.0 | 19.0 | 0.00 | 0.00 | 0.00 | 37 | 1010.3 |
| 20260503185000 | 53 | 284 | 12.0 | 25.0 | 0.00 | 0.00 | 0.00 | 34 | 1010.7 |
| 20260503183959 | 54 | 287 | 10.0 | 25.0 | 0.00 | 0.00 | 0.00 | 36 | 1010.8 |
| 20260503182959 | 53 | 275 | 12.0 | 21.0 | 0.00 | 0.00 | 0.00 | 35 | 1010.7 |
| 20260503181959 | 53 | 311 | 10.0 | 20.0 | 0.00 | 0.00 | 0.00 | 36 | 1010.9 |
| 20260503180959 | 53 | 298 | 10.0 | 18.0 | 0.00 | 0.00 | 0.00 | 37 | 1010.9 |
| 20260503180001 | 52 | 355 | 12.0 | 28.0 | 0.00 | 0.00 | 0.00 | 37 | 1010.9 |
| 20260503174959 | 53 | 257 | 12.0 | 23.0 | 0.00 | 0.00 | 0.00 | 37 | 1010.9 |
| 20260503174000 | 52 | 306 | 11.0 | 22.0 | 0.00 | 0.00 | 0.00 | 36 | 1011.0 |
| 20260503172959 | 51 | 355 | 11.0 | 22.0 | 0.00 | 0.00 | 0.00 | 38 | 1011.1 |
| 20260503172000 | 51 | 314 | 11.0 | 26.0 | 0.00 | 0.00 | 0.00 | 40 | 1011.2 |
| 20260503150959 | 48 | 341 | 7.0 | 15.0 | 0.00 | 0.00 | 0.00 | 47 | 1012.1 |
| 20260503130959 | 46 | 333 | 8.0 | 17.0 | 0.00 | 0.00 | 0.00 | 55 | 1012.1 |
| 20260503080959 | 42 | 327 | 3.0 | 9.0 | 0.00 | 0.03 | 0.00 | 59 | 1010.8 |
| 20260503072000 | 43 | 349 | 4.0 | 10.0 | 0.00 | 0.07 | 0.00 | 56 | 1010.4 |
| 20260503070959 | 44 | 328 | 4.0 | 12.0 | 0.00 | 0.07 | 0.00 | 56 | 1010.5 |